TimeCDT,TemperatureF,Dew PointF,Humidity,Sea Level PressureIn,VisibilityMPH,Wind Direction,Wind SpeedMPH,Gust SpeedMPH,PrecipitationIn,Events,Conditions,WindDirDegrees,DateUTC
12:39 AM,69.8,66.2,88,29.98,10.0,NNW,13.8,-,N/A,,Overcast,340,2013-10-17 05:39:00
12:53 AM,69.1,66.0,90,29.98,10.0,NNW,13.8,-,N/A,,Overcast,330,2013-10-17 05:53:00
1:08 AM,69.8,66.2,88,29.98,10.0,NNW,11.5,-,N/A,,Overcast,340,2013-10-17 06:08:00
1:27 AM,69.8,66.2,88,29.98,10.0,NW,11.5,-,N/A,,Overcast,320,2013-10-17 06:27:00
1:53 AM,68.0,64.9,90,29.99,9.0,NNW,15.0,-,N/A,,Unknown,330,2013-10-17 06:53:00
2:08 AM,68.0,64.4,88,29.97,10.0,NNW,11.5,-,N/A,,Overcast,340,2013-10-17 07:08:00
2:21 AM,66.2,64.4,94,29.97,10.0,NNW,13.8,-,N/A,,Overcast,340,2013-10-17 07:21:00
2:38 AM,66.2,64.4,94,29.97,10.0,NNW,15.0,-,N/A,,Overcast,340,2013-10-17 07:38:00
2:53 AM,66.9,64.9,93,29.98,9.0,NNW,16.1,-,N/A,,Overcast,340,2013-10-17 07:53:00
3:53 AM,66.9,64.0,90,29.98,10.0,NNW,16.1,-,N/A,,Overcast,330,2013-10-17 08:53:00
4:53 AM,66.0,63.0,90,29.98,9.0,NNW,13.8,-,N/A,,Overcast,330,2013-10-17 09:53:00
5:53 AM,66.0,63.0,90,29.99,9.0,NNW,12.7,-,N/A,,Overcast,330,2013-10-17 10:53:00
6:53 AM,66.0,63.0,90,30.00,9.0,NW,13.8,-,N/A,,Overcast,310,2013-10-17 11:53:00
7:53 AM,66.0,63.0,90,30.01,7.0,NW,10.4,-,N/A,,Overcast,320,2013-10-17 12:53:00
8:53 AM,66.0,63.0,90,30.04,7.0,NW,12.7,-,N/A,,Overcast,320,2013-10-17 13:53:00
9:53 AM,66.9,64.0,90,30.04,7.0,NNW,12.7,-,N/A,,Overcast,340,2013-10-17 14:53:00
10:03 AM,66.2,64.4,94,30.05,7.0,NNW,15.0,-,N/A,,Overcast,330,2013-10-17 15:03:00
10:53 AM,69.1,64.9,87,30.06,8.0,NNW,12.7,-,N/A,,Overcast,330,2013-10-17 15:53:00
11:53 AM,70.0,64.9,84,30.05,8.0,NNW,11.5,-,N/A,,Overcast,330,2013-10-17 16:53:00
12:53 PM,72.0,66.0,81,30.02,8.0,North,12.7,-,N/A,,Overcast,350,2013-10-17 17:53:00
1:41 PM,73.4,66.2,78,30.00,8.0,NNW,11.5,-,N/A,,Overcast,330,2013-10-17 18:41:00
1:53 PM,73.0,66.9,81,30.00,8.0,NW,11.5,-,N/A,,Overcast,320,2013-10-17 18:53:00
2:16 PM,73.4,66.2,78,29.99,8.0,NNW,11.5,-,N/A,,Overcast,330,2013-10-17 19:16:00
2:53 PM,72.0,66.9,84,29.98,8.0,NNW,12.7,-,N/A,,Overcast,330,2013-10-17 19:53:00
3:53 PM,73.0,66.9,81,29.96,8.0,NNW,10.4,-,N/A,,Overcast,340,2013-10-17 20:53:00
4:35 PM,73.4,66.2,78,29.95,8.0,NNW,10.4,-,N/A,,Overcast,340,2013-10-17 21:35:00
4:53 PM,72.0,66.9,84,29.95,8.0,NNW,12.7,-,N/A,,Overcast,330,2013-10-17 21:53:00
5:53 PM,72.0,66.9,84,29.94,8.0,NNW,9.2,-,N/A,,Overcast,330,2013-10-17 22:53:00
6:26 PM,71.6,66.2,83,29.94,8.0,NNW,10.4,-,N/A,,Overcast,330,2013-10-17 23:26:00
6:53 PM,72.0,66.0,81,29.94,8.0,NW,10.4,-,N/A,,Overcast,320,2013-10-17 23:53:00
7:53 PM,71.1,64.9,81,29.95,10.0,NW,6.9,-,N/A,,Overcast,310,2013-10-18 00:53:00
8:27 PM,69.8,64.4,83,29.96,10.0,WNW,8.1,-,N/A,,Mostly Cloudy,300,2013-10-18 01:27:00
8:53 PM,70.0,64.9,84,29.96,10.0,WNW,5.8,-,N/A,,Mostly Cloudy,290,2013-10-18 01:53:00
9:16 PM,69.8,64.4,83,29.97,10.0,WNW,6.9,-,N/A,,Mostly Cloudy,300,2013-10-18 02:16:00
9:31 PM,71.6,66.2,83,29.97,10.0,WNW,5.8,-,N/A,,Mostly Cloudy,300,2013-10-18 02:31:00
9:53 PM,71.1,66.0,84,29.97,10.0,NW,6.9,-,N/A,,Partly Cloudy,310,2013-10-18 02:53:00
10:53 PM,72.0,64.9,78,29.98,10.0,WNW,5.8,-,N/A,,Mostly Cloudy,290,2013-10-18 03:53:00
11:53 PM,68.0,64.0,87,29.97,10.0,West,5.8,-,N/A,,Clear,270,2013-10-18 04:53:00